Weather History for Los Angeles Downtown, CA

Change the Weather History Date:

Monday, March 17, 2014

  Actual Average Record
Temperature  
Mean Temperature 65 °F 61 °F  
Max Temperature 74 °F 70 °F 94 °F (1914)
Min Temperature 56 °F 51 °F 37 °F (1881)
Degree Days  
Heating Degree Days 0 5  
Month to date heating degree days 29 89  
Since 1 July heating degree days 506 864  
Cooling Degree Days 0 1  
Month to date cooling degree days 24 14  
Year to date cooling degree days 47 37  
Growing Degree Days 15 (Base 50)    
Moisture  
Dew Point 51 °F    
Average Humidity 61    
Maximum Humidity 80    
Minimum Humidity 41    
Precipitation  
Precipitation 0.00 in 0.06 in 1.28 in (1982)
Month to date precipitation 1.17 1.61  
Year to date precipitation 4.75 8.53  
Since 1 July precipitation 5.72 12.85  
Sea Level Pressure  
Sea Level Pressure 29.90 in    
Wind  
Wind Speed 3 mph (East)    
Max Wind Speed 12 mph    
Max Gust Speed 20 mph    
Visibility 10 miles    
Events      
T = Trace of Precipitation, MM = Missing Value Source: NWS Daily Summary

Daily Weather History Graph

Daily Weather History Graph

Search for Another Location

Airport:

Trip Planner

Search our weather history database for the weather conditions in past years. The results will help you decide how hot, cold, wet, or windy it might be!

Date:

Astronomy

Mar. 17, 2014 Rise Set
Actual Time 7:00 AM PDT 7:02 PM PDT
Civil Twilight 6:35 AM PDT 7:27 PM PDT
Nautical Twilight 6:06 AM PDT 7:56 PM PDT
Astronomical Twilight 5:37 AM PDT 8:25 PM PDT
Moon 8:19 PM PDT (3/17) 7:22 AM PDT (3/17)
Length of Visible Light 12h 51m
Length of Day
12h 01m
Full, 99% of the Moon is Illuminated
Mar 17
Full
Mar 23
Last Quarter
Mar 30
New
Apr 7
First Quarter
Apr 15
Full

Hourly Weather History & Observations

Time (PDT) Temp. Dew Point Humidity Pressure Visibility Wind Dir Wind Speed Gust Speed Precip Events Conditions
12:47 AM 64.0 °F 51.1 °F 63% 30.06 in 10.0 mi Calm Calm - N/A   Clear
1:47 AM 61.0 °F 51.1 °F 70% 30.04 in 10.0 mi Calm Calm - N/A   Clear
2:47 AM 59.0 °F 51.1 °F 75% 30.01 in 10.0 mi Calm Calm - N/A   Clear
3:47 AM 57.9 °F 52.0 °F 81% 30.00 in 10.0 mi Calm Calm - N/A   Clear
4:47 AM 57.0 °F 50.0 °F 77% 29.98 in 10.0 mi Calm Calm - N/A   Clear
5:47 AM 57.0 °F 46.9 °F 69% 29.97 in 10.0 mi Calm Calm - N/A   Clear
6:47 AM 57.9 °F 44.1 °F 60% 29.97 in 10.0 mi Calm Calm - N/A   Clear
7:47 AM 59.0 °F 46.0 °F 62% 29.97 in 10.0 mi Calm Calm - N/A   Clear
8:47 AM 63.0 °F 54.0 °F 72% 29.96 in 7.0 mi Variable 3.5 mph - N/A   Clear
9:47 AM 68.0 °F 48.0 °F 49% 29.95 in 10.0 mi Variable 5.8 mph - N/A   Clear
10:47 AM 70.0 °F 52.0 °F 53% 29.95 in 10.0 mi Calm Calm - N/A   Clear
11:47 AM 73.9 °F 52.0 °F 46% 29.91 in 10.0 mi Variable 4.6 mph - N/A   Clear
12:47 PM 73.0 °F 55.9 °F 55% 29.90 in 10.0 mi Variable 4.6 mph - N/A   Clear
1:47 PM 73.0 °F 48.9 °F 42% 29.86 in 10.0 mi Variable 4.6 mph - N/A   Clear
2:47 PM 71.1 °F 46.9 °F 42% 29.83 in 10.0 mi Calm Calm - N/A   Clear
3:47 PM 71.1 °F 50.0 °F 47% 29.81 in 10.0 mi Variable 3.5 mph - N/A   Clear
4:47 PM 69.1 °F 48.0 °F 47% 29.80 in 10.0 mi West 9.2 mph 19.6 mph N/A   Clear
5:47 PM 66.9 °F 51.1 °F 57% 29.78 in 10.0 mi Variable 5.8 mph - N/A   Clear
6:47 PM 63.0 °F 53.1 °F 70% 29.78 in 9.0 mi Variable 3.5 mph - N/A   Clear
7:47 PM 62.1 °F 53.1 °F 72% 29.78 in 9.0 mi Variable 3.5 mph - N/A   Clear
8:47 PM 61.0 °F 53.1 °F 75% 29.79 in 9.0 mi East 4.6 mph - N/A   Clear
9:47 PM 60.1 °F 53.1 °F 78% 29.79 in 8.0 mi ESE 4.6 mph - N/A   Clear
10:47 PM 60.1 °F 53.1 °F 78% 29.81 in 8.0 mi Calm Calm - N/A   Clear
11:47 PM 60.1 °F 52.0 °F 75% 29.81 in 9.0 mi East 4.6 mph - N/A   Partly Cloudy